Flag for U.S.A. Weather past 2 weeks in Metairie, Louisiana, U.S.A.

Now
51 °F

Passing clouds.


Feels Like: 51 °F
Forecast: 54 / 67 °F
Wind: No wind

Location: New Orleans International Airport


UV Index: 0 (Low)

Visibility: 10 mi


Pressure: 30.14 "Hg

Humidity: 86%

Dew point: 47 °F

Location of MetairieLocation

Historic Weather in Metairie

°F

Metairie temperature yesterday

Maximum temperature yesterday: 63 °F (at 3:53 PM)
Minimum temperature yesterday: 47 °F (at 6:53 AM)
Average temperature yesterday: 55 °F

Past Weeks' High & Low Weather Summary

 TemperatureHumidityPressure
High82 °F (Apr 13, 12:53 PM)100% (Apr 6, 7:03 AM)30.27 "Hg (Apr 6, 7:03 AM)
Low47 °F (Apr 15, 7:53 AM)32% (Apr 9, 3:53 PM)29.67 "Hg (Apr 7, 6:53 AM)
Average66 °F75%30.02 "Hg
* Reported Apr 2 12:53 AM — Apr 17 12:53 AM, Metairie, Weather by CustomWeather, © 2014

Note: Actual official high and low records may vary slightly from our data, if they occured in-between our weather recording intervals... More about our weather records

Advertising

Historic Weather Conditions — Data for Previous 24 hours

 ConditionsComfort  
Time TempWeatherWind HumidityBarometerVisibility
12:53 AM
Apr 17
51 °FClear.No wind80%30.16 "Hg10 mi
11:53 PM
Apr 16
53 °FClear.No wind74%30.17 "Hg10 mi
10:53 PM53 °FClear.No wind72%30.17 "Hg10 mi
9:53 PM53 °FClear.3 mph74%30.17 "Hg10 mi
8:53 PM55 °FPassing clouds.8 mph69%30.15 "Hg10 mi
7:53 PM57 °FScattered clouds.6 mph55%30.14 "Hg10 mi
6:53 PM60 °FScattered clouds.6 mph41%30.12 "Hg10 mi
5:53 PM61 °FScattered clouds.12 mph52%30.12 "Hg10 mi
4:53 PM63 °FScattered clouds.12 mph41%30.14 "Hg10 mi
3:53 PM63 °FScattered clouds.14 mph45%30.14 "Hg10 mi
2:53 PM62 °FScattered clouds.10 mph54%30.17 "Hg10 mi
1:53 PM61 °FPassing clouds.10 mph54%30.19 "Hg10 mi
12:53 PM61 °FPassing clouds.7 mph50%30.22 "Hg10 mi
11:53 AM59 °FPassing clouds.7 mph49%30.24 "Hg10 mi
10:53 AM57 °FPassing clouds.7 mph55%30.25 "Hg10 mi
9:53 AM54 °FPassing clouds.9 mph55%30.25 "Hg10 mi
8:53 AM52 °FSunny.12 mph55%30.24 "Hg10 mi
7:53 AM49 °FPassing clouds.12 mph50%30.24 "Hg10 mi
6:53 AM47 °FClear.6 mph59%30.22 "Hg10 mi
5:53 AM48 °FClear.8 mph59%30.20 "Hg10 mi
4:53 AM48 °FClear.12 mph59%30.19 "Hg10 mi
3:53 AM49 °FClear.15 mph57%30.17 "Hg10 mi
2:53 AM49 °FClear.14 mph59%30.18 "Hg10 mi
Weather by CustomWeather, © 2014

See weather overview